This is the latest recevied weather packets stored in our database for station/object N0FDH. If no packets are shown the sender has not sent any weather packets the latest 10 day(s).
| Time | Temp. | Humidity | Pressure | Rain* | Wind** | Luminosity | Snow |
|---|---|---|---|---|---|---|---|
| 1777812573 | 12.22° C | 56% | 1005.4 hPa | 0 mm | - | 38 W/m² | - |
| 1777812271 | 11.67° C | 58% | 1005.3 hPa | 0 mm | - | 52 W/m² | - |
| 1777811969 | 11.67° C | 58% | 1005.4 hPa | 0 mm | - | 36 W/m² | - |
| 1777811667 | 11.67° C | 59% | 1005.5 hPa | 0 mm | - | 49 W/m² | - |
| 1777811362 | 11.11° C | 61% | 1005.2 hPa | 0 mm | - | 43 W/m² | - |
| 1777811060 | 11.11° C | 61% | 1005.3 hPa | 0 mm | - | 34 W/m² | - |
| 1777810757 | 10.56° C | 62% | 1005.3 hPa | 0 mm | - | 45 W/m² | - |
| 1777810454 | 10.56° C | 63% | 1005.2 hPa | 0 mm | - | 28 W/m² | - |
| 1777810149 | 10.56° C | 64% | 1005 hPa | 0 mm | - | 26 W/m² | - |
| 1777809847 | 10° C | 64% | 1005.2 hPa | 0 mm | - | 25 W/m² | - |
| 1777809544 | 10° C | 66% | 1005.3 hPa | 0 mm | - | 27 W/m² | - |
| 1777809242 | 10° C | 66% | 1005.2 hPa | 0 mm | - | 26 W/m² | - |
| 1777808940 | 9.44° C | 67% | 1005 hPa | 0 mm | - | 21 W/m² | - |
| 1777808636 | 9.44° C | 67% | 1005.2 hPa | 0 mm | - | 19 W/m² | - |
| 1777808333 | 10° C | 66% | 1005.2 hPa | 0 mm | - | 17 W/m² | - |
| 1777808032 | 10° C | 65% | 1005.2 hPa | 0 mm | - | 15 W/m² | - |
| 1777807728 | 9.44° C | 66% | 1005 hPa | 0 mm | - | 13 W/m² | - |
| 1777807428 | 9.44° C | 66% | 1005 hPa | 0 mm | - | 11 W/m² | - |
| 1777807127 | 10° C | 66% | 1004.9 hPa | 0 mm | - | 10 W/m² | - |
| 1777806826 | 10° C | 67% | 1004.9 hPa | 0 mm | - | 8 W/m² | - |
| 1777806521 | 10° C | 66% | 1005 hPa | 0 mm | - | 6 W/m² | - |
| 1777806218 | 10° C | 66% | 1004.9 hPa | 0 mm | - | 4 W/m² | - |
| 1777805914 | 10° C | 66% | 1005 hPa | 0 mm | - | 3 W/m² | - |
| 1777805612 | 10° C | 67% | 1004.9 hPa | 0 mm | - | 2 W/m² | - |
| 1777805309 | 10° C | 67% | 1005 hPa | 0 mm | - | 1 W/m² | - |
* Rain latest hour (hover to see other rain measurements)
** Current wind speed in m/s (hover to see current wind gust speed)